[[{"header":{"parameterUnit":"m.s-1","parameterCategory":1,"la1":30.2991,"la2":30.254,"lo1":-89.0895,"lo2":-89.0444,"dy":0.0017,"dx":0.0017,"nx":28,"ny":28,"refTime":"2023-08-12T09:00:00:Z","depth":0,"parameterNumber":2,"parameterNumberName":"U-component_of_WINDS"},"data":[0,0,0,0,0,0,0,0,0,0,0,0,0,0,0,0,0,0,0,0,0,0,0,0,0,0,0,0,0,0,0,0,0,0,0,0,0,0,0,0,0,0,0,0,0,0,0,0,0,0,0,0,0,0,0,0,0,0,3.0407,3.0408,0,3.0516,3.0518,3.0519,3.0481,3.0479,3.0477,3.0474,3.0588,3.0593,3.0598,0,0,0,0,0,0,0,0,0,0,0,0,0,3.0164,3.0169,3.0407,3.0408,3.041,3.0516,3.0518,3.0519,3.0482,3.0479,3.0476,3.0473,3.0586,3.0592,3.0599,0,0,0,0,0,0,0,0,0,0,0,0,0,3.0271,3.017,3.0407,3.0404,3.0405,3.0516,3.0518,3.052,3.0483,3.0479,3.0475,3.0472,3.0584,3.0592,3.06,3.0721,0,0,3.0624,3.0627,0,0,0,0,0,0,0,0,3.0265,3.028,3.0403,3.0404,3.0405,3.0482,3.0474,3.0587,3.0483,3.0453,3.0474,3.047,3.0556,3.0566,3.0594,3.0726,3.0731,3.0624,3.0629,3.0633,3.0635,0,0,0,0,0,0,0,3.0258,3.0275,3.045,3.0405,3.0406,3.0397,3.0408,3.0495,3.0523,3.0455,3.0453,3.0466,3.0555,3.0587,3.0596,3.0732,3.0624,3.0631,3.0636,3.0639,3.0966,3.0969,0,0,0,0,0,0,3.025,3.0269,3.0447,3.0453,3.0325,3.0404,3.0416,3.0461,3.0522,3.0528,3.0469,3.0464,3.0575,3.0587,3.06,3.0743,3.0632,3.064,3.0644,3.0962,3.0966,3.0971,0,0,0,0,0,0,3.0245,3.0266,3.0442,3.0361,3.0382,3.0412,3.0462,3.0465,3.0496,3.0533,3.0537,3.0496,3.0572,3.0589,3.069,3.0747,3.0643,3.0651,3.0957,3.0963,3.0969,3.1032,0,0,0,0,0,0,3.0238,3.0264,3.0311,3.0362,3.0387,3.0531,3.0466,3.047,3.0509,3.0504,3.0559,3.0565,3.0571,3.0678,3.0698,3.0756,3.0657,3.0952,3.096,3.0967,3.1025,3.104,3.1052,0,0,0,0,0,3.0229,3.0326,3.0314,3.0335,3.0446,3.0534,3.0548,3.0553,3.0514,3.0561,3.0584,3.0563,3.0738,3.0689,3.0711,3.0772,3.0948,3.0958,3.0966,3.1019,3.1037,3.1052,0,0,0,0,0,0,3.0282,3.0333,3.032,3.0436,3.0481,3.0528,3.0587,3.0572,3.063,3.0622,3.0626,3.0639,3.0742,3.0767,3.0712,3.0891,3.0837,3.0851,3.087,3.0887,3.09,3.0892,3.0663,0,0,0,0,0,3.0307,3.0374,3.0415,3.0513,3.0536,3.0558,3.0596,3.0596,3.0643,3.0662,3.0693,3.074,3.0804,3.0848,3.091,3.1029,3.1039,3.1082,3.1095,3.1106,3.1117,3.1179,3.1198,3.1,3.1,3.0999,0,0,3.0359,3.0395,3.0438,3.0524,3.0559,3.0628,3.0574,3.065,3.0701,3.0674,3.077,3.0794,3.0846,3.0956,3.1006,3.098,3.1174,3.1117,3.1125,3.1131,3.119,3.1209,3.1225,3.1006,3.1005,3.1004,0,0,3.0489,3.0524,3.0608,3.0644,3.0697,3.071,3.073,3.0779,3.0794,3.089,3.087,3.0931,3.1044,3.1081,3.1115,3.1256,3.1237,3.1276,3.1346,3.1406,3.1422,3.1435,3.1483,3.1501,3.1287,3.1288,3.1288,0,3.0548,3.0651,3.0654,3.073,3.0768,3.0746,3.083,3.0864,3.0935,3.0962,3.0932,3.1071,3.1105,3.1221,3.1255,3.1284,3.1306,3.1269,3.1419,3.1433,3.1446,3.1492,3.151,3.1292,3.1291,3.1291,3.1291,0,3.0718,3.079,3.0852,3.0919,3.0964,3.1044,3.1058,3.1103,3.1099,3.1115,3.1212,3.1251,3.132,3.1348,3.1345,3.1463,3.1445,3.1418,3.1363,3.1469,3.1512,3.153,3.1298,3.1296,3.1295,3.1294,0,0,3.0886,3.0952,3.0974,3.1003,3.1059,3.1114,3.1192,3.1258,3.1296,3.1345,3.141,3.1504,3.1478,3.1516,3.1517,3.157,3.1676,3.1535,3.1536,3.1558,3.1806,3.1825,3.1846,3.1665,3.1668,3.1671,3.1801,0,3.1018,3.1155,3.1159,3.1284,3.1349,3.1328,3.1396,3.1437,3.1453,3.151,3.1529,3.1595,3.1556,3.1579,3.1631,3.1652,3.1725,3.1643,3.1723,3.1726,3.1709,3.1869,3.189,3.2011,3.1818,3.1821,3.1823,0,3.1192,3.1245,3.1376,3.142,3.1447,3.1508,3.1567,3.1622,3.1668,3.1676,3.1717,3.1709,3.1788,3.1732,3.184,3.1783,3.1816,3.1832,3.1837,3.1843,3.178,3.1877,3.205,3.2067,3.185,3.1848,3.1846,0,3.1297,3.1402,3.1493,3.1519,3.1573,3.1616,3.164,3.1682,3.172,3.1772,3.1797,3.1858,3.1891,3.1937,3.1945,3.1904,3.2052,3.1998,3.206,3.206,3.2092,3.2089,3.227,3.2116,3.2116,3.2115,3.2115,0,3.1444,3.1525,3.1541,3.1597,3.1686,3.1689,3.1776,3.1798,3.1834,3.1893,3.1879,3.1935,3.1943,3.2,3.2007,3.2094,3.211,3.2117,3.2118,3.2118,3.2116,3.2138,3.2129,3.212,3.2119,3.2118,3.2117,0,3.1577,3.1591,3.1689,3.1731,3.1743,3.1807,3.1843,3.1895,3.191,3.1984,3.2002,3.2025,3.2091,3.2104,3.2183,3.2188,3.229,3.2283,3.2274,3.2273,3.2333,3.2327,3.2533,3.2559,3.239,3.2392,3.2393,0,3.1669,3.173,3.1778,3.1816,3.1842,3.1905,3.1943,3.1948,3.1988,3.2043,3.2089,3.2153,3.2205,3.2312,3.2335,3.2395,3.2388,3.2456,3.2397,3.2394,3.2387,3.2382,3.2387,3.2467,3.2469,3.2471,3.2472,0,3.183,3.1833,3.1889,3.1947,3.1993,3.2039,3.2083,3.2115,3.2125,3.2171,3.2238,3.2278,3.2357,3.2421,3.248,3.2504,3.249,3.249,3.2507,3.2507,3.2498,3.2501,3.2303,3.2486,3.2484,3.2483,3.2482,3.2482,3.1944,3.1996,3.2037,3.2099,3.2132,3.2172,3.2223,3.2243,3.2299,3.2363,3.2363,3.2435,3.2477,3.2554,3.2582,3.2639,3.2617,3.2643,3.2649,3.2655,3.2659,3.2491,3.265,3.265,3.2649,3.2649,3.2649,0,3.2102,3.2127,3.2184,3.2244,3.2293,3.2274,3.232,3.2362,3.2426,3.2465,3.2516,3.2591,3.2652,3.268,3.274,3.2779,3.2774,3.2795,3.2791,3.2796,3.2676,3.2654,3.2798,3.2798,3.2798,3.2798,3.2798,3.2798,3.219,3.2276,3.2284,3.2386,3.241,3.248,3.2508,3.2545,3.2576,3.2661,3.2711,3.2728,3.2762,3.2824,3.2878,3.2885,3.2906,3.293,3.2933,3.282,3.2805,3.2791,3.277,3.2935,3.2936,3.3048,3.3049,3.305]},{"header":{"parameterUnit":"m.s-1","parameterCategory":1,"la1":30.2991,"la2":30.254,"lo1":-89.0895,"lo2":-89.0444,"dy":0.0017,"dx":0.0017,"nx":28,"ny":28,"refTime":"2023-08-12T09:00:00:Z","depth":0,"parameterNumber":3,"parameterNumberName":"V-component_of_WINDS"},"data":[0,0,0,0,0,0,0,0,0,0,0,0,0,0,0,0,0,0,0,0,0,0,0,0,0,0,0,0,0,0,0,0,0,0,0,0,0,0,0,0,0,0,0,0,0,0,0,0,0,0,0,0,0,0,0,0,0,0,5.2224,5.2224,0,5.2218,5.2218,5.2217,5.213,5.2127,5.2125,5.2123,5.2116,5.2118,5.212,0,0,0,0,0,0,0,0,0,0,0,0,0,5.216,5.2162,5.2224,5.2224,5.2224,5.2218,5.2218,5.2217,5.213,5.2127,5.2125,5.2122,5.2116,5.2118,5.212,0,0,0,0,0,0,0,0,0,0,0,0,0,5.2174,5.2162,5.2224,5.218,5.2176,5.2218,5.2218,5.2217,5.2131,5.2127,5.2124,5.2121,5.2115,5.2118,5.212,5.2205,0,0,5.2129,5.213,0,0,0,0,0,0,0,0,5.2173,5.2177,5.2186,5.2183,5.2178,5.2171,5.2192,5.2213,5.2131,5.2148,5.2123,5.2119,5.2137,5.2138,5.2144,5.2204,5.2204,5.2129,5.2131,5.2132,5.2133,0,0,0,0,0,0,0,5.2173,5.2176,5.2222,5.2187,5.2182,5.216,5.2158,5.2196,5.2161,5.2146,5.214,5.214,5.2134,5.2142,5.2143,5.2204,5.2129,5.2132,5.2133,5.2135,5.2331,5.2335,0,0,0,0,0,0,5.2178,5.2176,5.2222,5.2221,5.2168,5.2164,5.2162,5.2177,5.2161,5.2155,5.2143,5.2136,5.2138,5.214,5.2143,5.2238,5.2132,5.2135,5.2137,5.2328,5.2332,5.2336,0,0,0,0,0,0,5.2177,5.2183,5.2222,5.2197,5.22,5.2168,5.2186,5.2178,5.2185,5.2158,5.2151,5.2157,5.2136,5.2139,5.2189,5.2237,5.2136,5.2139,5.2324,5.2329,5.2334,5.2432,0,0,0,0,0,0,5.2175,5.2183,5.2215,5.2198,5.2202,5.227,5.2189,5.2181,5.2191,5.2181,5.2169,5.2164,5.2133,5.2186,5.2192,5.2239,5.2141,5.2319,5.2326,5.2332,5.2425,5.244,5.2454,0,0,0,0,0,5.2173,5.2243,5.2217,5.2223,5.2241,5.2272,5.2274,5.2238,5.2195,5.2226,5.2209,5.2164,5.2231,5.2192,5.2198,5.2247,5.2316,5.2324,5.2332,5.2418,5.2437,5.2453,0,0,0,0,0,0,5.2266,5.224,5.2211,5.2278,5.2278,5.2258,5.2296,5.2259,5.2272,5.2263,5.2217,5.2215,5.2272,5.2265,5.2221,5.2327,5.2266,5.2276,5.2329,5.2347,5.2361,5.2361,5.2143,0,0,0,0,0,5.2295,5.2322,5.2298,5.2359,5.2361,5.2329,5.2341,5.2313,5.2311,5.2311,5.2297,5.2297,5.2317,5.2332,5.235,5.2424,5.2419,5.246,5.2475,5.2487,5.2495,5.2532,5.255,5.2362,5.2362,5.2362,0,0,5.2353,5.2342,5.2363,5.2377,5.2374,5.2403,5.2329,5.2364,5.2384,5.2316,5.2362,5.2353,5.2349,5.2412,5.2439,5.2407,5.2546,5.2497,5.2507,5.2508,5.2542,5.256,5.2576,5.2367,5.2366,5.2365,0,0,5.2474,5.247,5.2519,5.2517,5.2513,5.2492,5.2504,5.2489,5.2479,5.2526,5.2474,5.2499,5.2536,5.2535,5.254,5.2661,5.262,5.2668,5.2743,5.278,5.2794,5.2807,5.2848,5.2864,5.2677,5.2677,5.2677,0,5.2547,5.2589,5.2549,5.2586,5.2594,5.2533,5.2582,5.2583,5.2585,5.2591,5.2557,5.2601,5.2595,5.2655,5.2685,5.2691,5.2703,5.2668,5.2795,5.2808,5.2819,5.2858,5.2874,5.2683,5.2682,5.2681,5.2681,0,5.2678,5.2708,5.2748,5.2751,5.2764,5.2807,5.2773,5.279,5.2761,5.2743,5.279,5.2781,5.2795,5.2807,5.278,5.2864,5.2844,5.2804,5.2741,5.2843,5.2879,5.2894,5.2691,5.2689,5.2687,5.2686,0,0,5.2856,5.2837,5.2852,5.2852,5.2843,5.2865,5.2906,5.2919,5.2934,5.2938,5.2969,5.3002,5.2964,5.297,5.2941,5.2974,5.3067,5.2928,5.2927,5.2953,5.3158,5.3187,5.3205,5.3041,5.3044,5.3046,5.3157,0,5.2971,5.3038,5.3003,5.3074,5.31,5.3043,5.3078,5.3077,5.3061,5.308,5.3063,5.3086,5.3035,5.3038,5.3067,5.305,5.3108,5.3042,5.3069,5.307,5.3069,5.3224,5.3255,5.336,5.3171,5.3174,5.3175,0,5.3114,5.3123,5.3197,5.3182,5.3192,5.3223,5.3232,5.3252,5.3249,5.3235,5.3241,5.3205,5.3243,5.3183,5.3234,5.3189,5.3199,5.3192,5.3195,5.3195,5.3128,5.3226,5.3393,5.3408,5.3197,5.3195,5.3194,0,5.3234,5.3265,5.3312,5.3315,5.3299,5.3322,5.3317,5.331,5.3321,5.3329,5.3334,5.3348,5.3354,5.3365,5.3333,5.3292,5.3388,5.3325,5.3376,5.3377,5.3397,5.3396,5.3567,5.3407,5.3407,5.3407,5.3406,0,5.3364,5.3411,5.3366,5.3395,5.3445,5.3405,5.3456,5.3445,5.344,5.3465,5.3417,5.3442,5.34,5.342,5.3396,5.3441,5.3445,5.3434,5.3426,5.3437,5.3438,5.3441,5.3432,5.3411,5.341,5.3409,5.3408,0,5.3506,5.3478,5.3525,5.3507,5.3503,5.3541,5.3525,5.3551,5.3532,5.3565,5.357,5.3541,5.3563,5.3532,5.3551,5.3535,5.3596,5.3578,5.3597,5.3591,5.3643,5.3638,5.382,5.3841,5.367,5.3672,5.3673,0,5.359,5.3625,5.3609,5.3623,5.362,5.3643,5.3652,5.3615,5.3627,5.3625,5.3651,5.3669,5.3681,5.3719,5.3699,5.3713,5.3694,5.3757,5.3696,5.3705,5.3692,5.369,5.3692,5.3769,5.3771,5.3773,5.3774,0,5.3742,5.3726,5.3741,5.3753,5.3765,5.3772,5.3776,5.379,5.375,5.3766,5.3787,5.3796,5.3815,5.3833,5.3842,5.3836,5.3798,5.3794,5.3806,5.3816,5.3824,5.3818,5.3628,5.3789,5.3788,5.3786,5.3786,5.3785,5.3855,5.3883,5.3876,5.3895,5.3893,5.3898,5.392,5.3904,5.3922,5.3933,5.391,5.3938,5.3933,5.3941,5.3939,5.396,5.3932,5.395,5.3955,5.3959,5.3966,5.3823,5.3962,5.3961,5.3961,5.396,5.396,0,5.4002,5.3995,5.4013,5.4019,5.4034,5.3997,5.3999,5.4014,5.4038,5.4037,5.4049,5.4074,5.4091,5.4073,5.4086,5.4106,5.4089,5.4111,5.4108,5.4107,5.3991,5.3978,5.4124,5.4124,5.4124,5.4124,5.4124,5.4124,5.408,5.4124,5.4108,5.415,5.4142,5.4168,5.4172,5.4175,5.4174,5.4203,5.4217,5.4205,5.4197,5.4209,5.4223,5.4217,5.4224,5.4251,5.4239,5.4131,5.4115,5.41,5.4087,5.4254,5.4254,5.4353,5.4354,5.4355]}]]